GFSFLT2_con_lsi_108.txt.gz
Lid_Strength_Index
0 0 -0 0 1 1 1 0 -0 -0 -0 0 -0 0 0 -0 -0 -0 -0 -0 -1 -1 -1 -1 -1 -1 -1 -0 0 0 1 1
1 0 0 0 0 1 1 0 0 0 0 0 1 0 0 0 0 -0 -0 -0 -1 -1 -1 -1 -1 -0 -0 0 0 0 1 1
1 1 1 1 0 0 -0 -0 0 0 0 0 1 0 0 0 0 0 -0 -0 -0 -1 -0 -0 -0 -0 -0 0 0 1 1 1
1 1 0 0 0 -0 -0 -0 -0 -0 -0 -0 -0 0 1 -0 0 1 0 0 0 -0 -0 0 -0 1 0 -0 1 1 1 1
1 1 1 1 0 0 -0 -0 1 0 0 -0 -0 0 1 1 1 1 1 0 0 -0 0 0 1 1 1 1 1 1 1 0
2 1 1 1 0 0 1 1 1 1 1 1 1 1 1 1 1 2 2 1 2 1 1 2 2 1 1 1 1 1 1 0
2 1 1 1 1 0 1 1 1 1 1 1 1 0 0 1 1 2 2 2 2 2 2 2 2 2 1 1 1 1 1 0
2 2 1 1 1 1 0 0 0 1 1 1 1 -0 0 1 1 1 2 2 2 2 2 2 2 2 2 1 1 0 -0 -0
2 2 2 1 1 1 1 1 1 1 0 1 0 -0 0 1 1 1 1 3 3 3 3 3 3 2 2 1 1 -0 -0 -0
1 1 1 2 2 1 1 1 1 0 -0 -0 -0 0 0 1 2 1 1 2 3 3 3 3 3 2 1 1 1 0 -0 -0
5 1 1 1 2 2 1 0 0 0 0 1 0 0 0 1 2 2 2 2 3 3 3 3 3 2 1 1 0 0 -0 -0
6 1 1 1 1 1 1 1 1 0 0 1 0 1 0 1 2 2 2 3 2 3 3 2 2 2 1 1 1 0 0 0
6 6 2 1 2 2 2 2 2 1 1 0 0 0 1 1 2 2 2 2 3 2 2 3 3 2 2 2 2 1 1 0
7 6 5 1 1 1 1 1 1 1 1 1 0 0 0 1 2 2 2 2 2 2 2 2 2 2 3 3 5 3 2 1
5 6 4 1 1 1 1 2 2 2 2 1 1 0 1 1 1 1 2 2 2 2 2 2 3 2 1 3 6 7 4 2
5 3 4 1 1 2 2 3 4 2 2 1 1 1 1 1 1 1 2 2 2 2 1 2 2 3 2 1 3 3 5 6
6 5 4 2 2 2 2 3 2 2 2 2 2 2 1 1 1 1 2 2 1 1 1 2 1 2 2 2 2 3 3 4
8 5 4 2 2 2 2 3 3 3 2 2 2 2 1 2 2 2 2 1 1 1 1 1 1 1 1 2 2 4 4 4
8 8 6 2 2 2 2 2 2 3 2 2 2 2 2 1 2 2 2 1 2 2 1 1 2 1 2 2 1 2 2 2
11 9 9 8 3 2 2 2 3 2 2 2 2 2 2 2 2 2 2 1 1 1 1 1 1 1 1 1 1 1 1 2

GFSFLT2_con_lsi_111.txt.gz
Lid_Strength_Index
-1 -1 -1 0 1 1 0 -0 -0 -0 -0 0 0 0 0 -0 -0 -0 -1 -1 -1 -1 -1 -1 -1 -1 -0 0 0 -0 -1 -1
-0 -0 0 -1 -1 1 0 0 0 0 0 0 1 1 0 -0 0 -0 -0 -1 -1 -1 -1 -1 -1 -0 -0 0 0 0 -1 -1
-0 -0 0 -1 -1 -1 -0 -0 0 0 -0 0 1 -1 -1 -1 -0 0 -0 -0 -0 -1 -1 -0 -0 -0 -0 -0 0 -1 -1 -1
0 -0 -0 -0 -1 -1 -1 -1 -1 -1 -1 -1 -1 -1 -1 -1 -0 1 1 0 -0 -0 -0 -0 -0 -1 -1 -0 -1 -1 -1 -1
0 0 -0 -0 -0 0 -0 -1 -1 -0 -1 -1 -1 -1 -1 -1 -1 -1 -1 -0 -1 -1 -1 -1 -1 -1 -1 -1 -1 -1 -1 -1
0 -0 0 -0 -0 0 0 -0 -0 -0 -0 -1 -1 -0 -0 -0 -1 -1 -1 -1 -1 -1 -1 -1 -1 -1 -1 -1 -1 -1 -1 -1
1 0 0 0 0 1 0 -0 -0 1 1 -0 -0 0 0 -0 -0 -1 -1 -1 -1 -1 -1 -1 -1 -1 -1 -1 -1 -1 -1 -1
0 0 0 -0 0 0 0 -0 -0 1 -0 -1 0 0 0 0 -0 -0 -1 -1 -1 -1 -1 -0 -0 -1 -1 -1 -1 -1 -1 -1
0 1 -0 0 0 0 -0 -0 -0 0 -0 -1 -1 -1 -1 -0 0 0 -0 -1 -1 -1 -1 -1 -0 -1 -0 -1 -1 -1 -1 -1
3 0 0 0 0 0 -0 -0 -0 -0 -1 -1 -1 -1 -1 -0 0 0 -0 0 -0 -0 -0 0 0 0 0 -0 -0 -1 -1 -1
3 1 0 0 0 -0 -0 -0 -0 -0 -0 -0 -1 -1 -1 -0 0 1 0 1 1 0 0 0 1 1 0 -0 -0 -0 -0 -1
3 3 1 0 0 0 0 0 0 -0 -0 -0 -1 -0 -0 0 -0 1 1 1 1 2 1 1 0 1 1 1 0 0 -1 -0
4 3 2 0 1 2 2 2 1 1 0 -0 -0 -0 -0 0 0 1 1 1 1 2 2 2 2 1 2 2 1 0 0 0
1 1 3 2 1 1 1 1 1 1 0 0 -0 -0 -0 0 1 1 2 1 1 1 2 2 2 1 3 3 5 3 1 0
2 1 1 1 0 1 1 1 1 2 1 1 1 -0 0 0 0 1 2 2 1 1 2 2 3 1 1 3 5 6 3 1
3 3 2 1 0 1 2 2 3 2 2 1 1 0 0 0 1 1 1 1 1 1 1 1 1 3 1 1 1 1 5 6
5 4 2 1 1 1 2 2 2 1 1 1 1 1 1 0 1 1 1 1 0 1 1 1 1 2 2 2 2 2 2 4
7 6 5 2 1 1 2 2 2 2 2 2 2 1 1 1 1 1 1 1 1 1 1 1 1 1 1 1 2 3 4 4
9 8 7 5 2 1 1 2 2 2 2 2 2 2 2 1 1 1 1 1 1 1 1 1 1 1 1 1 1 2 2 2
11 9 9 7 6 3 1 2 2 2 1 1 2 1 1 1 1 1 1 1 1 1 1 1 1 1 1 1 1 1 1 2

GFSFLT2_con_lsi_114.txt.gz
Lid_Strength_Index
-1 -1 -1 0 0 0 0 -0 -0 -0 -0 0 -0 0 0 -0 -0 -0 -0 -1 -1 -1 -1 -1 -1 -1 -0 0 0 -0 -1 -1
-1 -1 -1 -1 -1 0 0 0 0 0 0 0 1 0 0 -0 -0 -0 -0 -1 -1 -1 -1 -1 -1 -0 -0 0 0 0 -2 -1
-0 -0 -1 -1 -1 -1 -0 -0 -0 0 -0 0 1 -2 -2 -1 -0 0 -0 -0 -0 -0 -0 -0 -0 -0 -0 0 0 -1 -2 -1
0 -0 -0 -0 -1 -1 -1 -1 -1 -2 -2 -2 -2 -2 -1 -1 -0 1 1 1 0 -0 -0 -0 -0 -1 -1 -0 -1 -2 -1 -1
0 -0 -1 -0 -1 -0 -1 -1 -1 -1 -2 -2 -2 -1 -1 -1 -1 -1 -2 -0 -1 -1 -1 -1 -2 -1 -1 -1 -2 -1 -1 -1
0 -0 -0 -1 -0 -0 -0 -0 -1 -0 -1 -2 -1 -0 -1 -1 -1 -1 -1 -1 -1 -1 -1 -1 -1 -1 -1 -1 -1 -1 -1 -2
0 -0 -0 -0 -0 -0 -0 -0 -0 -1 -1 -1 -1 -0 -0 -0 -1 -1 -1 -1 -1 -1 -1 -1 -1 -1 -1 -1 -1 -1 -1 -1
2 -0 -0 -0 -0 -0 -0 -0 -1 -1 -1 -1 -1 -1 -0 -0 -0 -0 -1 -1 -1 -1 -1 -0 -0 -1 -0 -1 -1 -1 -1 -2
4 1 -1 -0 -0 -0 -0 -0 -1 -0 -0 -1 -1 -1 -1 -0 0 -0 -0 -1 -1 -1 -1 -1 -0 -0 -0 -0 -1 -1 -1 -1
3 3 1 -0 -0 -0 -0 -1 -1 -0 -0 -1 -1 -0 -1 -0 0 0 -1 -1 -0 -0 0 0 0 0 0 0 -0 -1 -1 -1
2 2 2 -0 -0 -0 -0 -1 -0 -1 -1 -1 -1 -1 -1 -0 -0 -0 -1 -0 0 0 0 0 1 1 1 0 -0 -0 -1 -1
0 1 2 1 -0 -0 -0 -0 -0 -0 -0 -0 -1 -1 -1 -0 -0 -0 -0 0 0 0 1 0 1 1 1 1 0 -0 -1 -1
0 1 0 2 2 1 1 1 1 0 -0 -0 -1 -1 -1 -0 -0 -0 0 1 1 0 1 1 1 0 2 2 1 0 0 -0
1 1 0 0 0 1 0 1 0 0 -0 -0 -1 -1 -0 -0 -0 0 0 1 1 1 1 2 1 1 3 3 5 3 1 0
3 2 1 0 -0 0 0 0 0 1 1 1 0 -0 -0 -0 -0 0 0 0 1 1 1 1 3 1 1 2 5 5 3 1
4 3 2 1 -0 1 1 1 2 1 1 1 0 -0 0 -0 -0 0 0 0 1 1 0 1 1 3 2 1 1 1 5 5
6 5 4 2 1 0 1 1 1 1 1 1 0 0 0 0 0 0 0 0 1 1 1 1 1 2 2 2 2 2 2 4
7 7 6 5 4 2 1 1 1 1 1 2 1 1 1 1 0 0 0 0 1 1 1 1 1 1 1 1 2 3 3 3
8 9 8 7 5 3 1 1 1 2 1 1 2 2 2 1 1 1 1 0 0 0 1 1 1 1 1 1 1 1 1 2
9 10 10 10 8 6 4 1 1 1 1 1 1 2 1 1 1 1 1 0 0 0 1 1 1 1 1 1 1 1 1 1

GFSFLT2_con_lsi_117.txt.gz
Lid_Strength_Index
-0 -1 -1 -0 0 0 0 0 0 -0 -0 -0 -0 0 -0 -0 -1 -1 -1 -0 -1 -1 -1 -1 -1 -1 -1 0 0 -0 -1 -1
-0 -1 -1 -1 -1 -0 0 0 0 0 0 0 0 0 -0 -0 -0 -0 -0 -0 -1 -1 -1 -1 -1 -0 -0 0 0 -0 -1 -1
-0 -0 -0 -1 -1 -1 -0 -0 -0 0 -0 0 1 -1 -1 -1 -0 0 0 -0 -0 -0 -0 -0 -0 -0 -0 0 0 -1 -1 -1
0 0 -0 -1 -1 -1 -1 -1 -1 -1 -1 -1 -1 -1 -1 -1 -0 0 0 0 0 -0 -0 -0 -0 -1 -1 -0 -1 -1 -1 -2
0 0 -0 -0 -0 -1 -1 -1 -1 -1 -1 -2 -1 -1 -1 -1 -1 -1 -1 -0 -1 -1 -1 -1 -1 -1 -1 -1 -1 -1 -1 -1
0 0 0 -0 -0 -0 -0 -0 -1 -0 -1 -2 -1 -0 -0 -0 -0 -1 -1 -1 -1 -1 -1 -1 -1 -1 -1 -1 -1 -1 -1 -1
0 -0 0 0 -0 -0 -0 -0 -0 -1 -1 -1 -1 -0 -0 -0 -0 -1 -1 -1 -1 -0 -0 -0 -0 -1 -1 -1 -1 -1 -1 -1
0 1 -0 -0 0 -0 -0 -0 -0 -0 -1 -1 -1 -1 -1 -0 -0 -0 -0 -1 -1 -1 -0 0 -0 -0 -0 -1 -0 -1 -1 -1
1 0 1 -1 -0 -0 -0 -0 -0 -0 -0 -1 -1 -1 -0 -0 -0 -0 -1 -1 -1 -1 -0 -0 0 -0 0 -0 -0 -1 -1 -1
1 1 0 1 -1 -0 -0 -0 -0 -0 -0 -1 -1 -0 -1 -0 0 0 -1 -1 -0 0 0 0 1 1 1 0 0 -0 -1 -1
1 -0 -0 0 0 -0 -0 -0 -0 -0 -0 -0 -1 -1 -1 -0 -0 -0 -1 -0 -0 0 1 1 1 1 1 1 0 0 -0 -0
0 -0 -0 -0 0 -1 -0 0 -0 -0 -0 -0 -0 -0 -1 -0 -0 -0 -0 0 0 0 1 0 1 1 1 1 0 0 -0 -0
1 0 -0 0 0 1 1 1 1 0 0 -0 -0 -0 -0 -0 0 0 -0 1 1 0 1 1 1 1 2 2 1 1 1 0
2 2 1 0 0 0 0 0 0 0 -0 -0 -0 -0 -0 -0 0 0 0 1 1 1 1 2 1 1 3 3 5 3 1 1
4 3 2 1 1 0 0 0 0 1 1 1 0 -0 -0 -0 -0 0 0 0 1 1 1 2 3 1 1 3 5 5 3 1
4 4 4 3 2 1 1 2 2 1 1 1 0 0 0 0 -0 0 0 0 1 1 1 1 2 3 2 1 1 1 4 5
6 5 5 4 3 2 2 1 1 1 1 1 1 0 0 0 0 0 0 0 0 1 1 1 1 2 2 2 2 2 2 3
7 7 6 5 5 4 4 3 1 2 2 1 1 1 1 0 0 0 0 1 1 1 1 1 1 1 1 2 2 3 3 4
9 9 8 7 6 6 5 4 2 2 2 2 1 2 1 1 1 1 1 1 0 0 1 1 1 1 2 2 1 2 1 2
10 10 9 8 8 7 6 6 3 1 1 1 2 1 1 1 1 1 1 0 1 1 1 1 1 1 1 1 1 1 1 1

GFSFLT2_con_lsi_120.txt.gz
Lid_Strength_Index
-0 -0 -0 -0 0 0 1 0 0 -0 -0 -0 -0 0 0 -0 -0 -1 -0 -0 -0 -1 -1 -1 -1 -1 -0 -0 0 -0 0 -1
0 -0 -0 -1 -1 0 0 0 0 0 0 0 0 0 -0 -0 -0 -0 0 -0 -0 -1 -1 -1 -1 -0 -0 0 0 -0 -0 -0
-0 0 -0 -0 -0 -0 -0 -0 -0 0 -0 0 1 -1 -0 -0 -0 0 -0 1 -0 -0 -0 -0 -0 -0 -0 0 0 -0 0 -0
0 0 0 -0 -0 -0 -0 -0 -0 -0 -0 -0 -0 -0 -0 -0 0 0 0 1 0 -0 -0 -0 -0 -0 -0 -0 -0 -0 0 -0
1 0 0 0 0 -0 -0 -0 -0 -0 -0 -0 -0 -0 -0 -0 -0 -0 -0 0 -0 0 0 -0 -0 -0 -0 -0 -0 0 0 -0
1 0 0 0 -0 0 0 0 -0 0 -0 -0 -0 0 0 0 0 -0 -0 -0 0 -0 -0 -0 0 -0 -0 0 0 0 0 -0
1 0 0 0 0 0 -0 0 0 0 -0 -0 -0 0 0 0 0 -0 0 -0 -0 0 0 0 0 0 -0 -0 0 0 0 -0
0 0 0 0 0 0 0 0 -0 0 -0 -0 -0 -0 0 0 0 0 0 -0 -0 0 0 0 0 0 0 0 0 0 0 0
1 -0 -0 0 0 0 0 0 -0 0 0 -0 -0 -0 0 0 0 0 0 -0 0 0 0 0 0 0 1 0 0 0 0 0
1 1 0 0 0 0 0 -0 0 0 -0 -0 -0 -0 0 0 1 1 0 0 0 0 1 1 1 1 1 1 1 0 0 0
2 1 1 1 0 0 1 0 0 0 0 0 0 -0 -0 0 0 0 0 0 0 1 1 1 1 1 1 1 1 1 1 0
3 3 2 1 0 0 0 2 0 0 0 0 -0 -0 0 0 0 0 0 1 1 1 1 1 1 1 1 1 1 1 0 1
4 4 3 3 2 1 1 2 2 1 0 0 0 0 0 0 0 1 0 1 1 1 1 2 2 1 2 2 2 1 1 1
5 5 5 4 3 2 1 1 1 2 0 0 0 0 0 0 1 1 1 1 1 1 1 2 2 1 3 3 5 4 2 1
6 6 5 5 5 4 3 1 1 1 3 2 1 0 0 0 0 1 1 1 1 1 1 2 3 2 2 3 6 7 4 2
7 7 7 6 5 5 5 4 3 2 1 2 1 0 0 0 0 0 1 1 1 1 1 1 2 3 2 1 2 3 5 6
9 9 9 8 7 6 6 6 4 2 1 1 1 1 0 0 0 1 1 1 1 1 1 1 1 2 2 3 2 2 3 5
10 10 10 10 9 8 7 7 6 5 4 2 2 1 1 1 1 1 1 1 1 1 1 1 1 1 2 2 3 4 4 4
11 12 12 11 10 10 9 9 8 7 6 4 2 2 2 1 1 1 1 1 1 1 1 1 1 2 2 2 2 2 2 3
12 12 12 12 11 10 9 9 8 7 6 5 3 2 1 1 1 1 1 1 1 1 1 1 1 1 2 1 2 2 1 2

GFSFLT2_con_lsi_123.txt.gz
Lid_Strength_Index
1 1 0 0 1 1 1 0 0 -0 -0 0 0 0 0 -0 -0 -0 -0 -0 -0 -0 -0 -0 -1 -0 -0 0 0 0 0 -0
2 1 1 1 0 1 1 1 0 0 0 0 1 0 0 -0 -0 -0 -0 -0 -0 -0 -0 -0 -0 -0 -0 0 0 0 0 0
1 2 1 1 0 -0 0 0 0 0 0 0 1 -0 -0 -0 0 0 0 0 0 -0 -0 -0 -0 -0 -0 0 0 0 -0 -0
1 1 1 1 -0 0 0 -0 -0 -0 -0 -0 -0 -0 -0 -0 0 1 1 1 0 0 -0 0 0 0 0 -0 0 -0 1 0
1 1 1 0 1 1 0 0 0 0 0 -0 0 -0 -0 -0 -0 -0 0 0 0 0 0 0 0 0 0 0 0 0 1 0
1 0 1 1 1 1 1 0 0 0 0 -0 0 0 1 0 1 1 0 0 0 1 1 0 0 0 0 0 0 0 1 1
1 1 1 0 0 1 1 1 1 0 0 0 -0 1 1 2 1 1 0 0 -0 0 1 1 0 0 0 1 0 0 0 0
3 2 2 1 1 1 1 1 0 0 0 -0 0 0 1 1 1 0 0 0 -0 0 1 1 0 0 0 1 1 0 1 0
4 3 2 2 2 0 0 0 0 1 0 -0 -0 0 0 1 1 1 1 0 0 0 1 1 1 0 1 1 1 1 1 0
5 4 4 4 3 1 0 1 1 0 -0 0 0 0 1 1 1 1 1 0 0 1 1 1 1 1 2 1 1 1 1 1
6 5 5 5 4 3 2 2 1 1 0 0 -0 0 0 1 1 1 1 1 1 1 1 1 2 2 1 1 1 1 1 1
7 6 6 6 5 4 4 3 4 2 1 0 0 -0 0 0 1 2 1 2 2 1 2 1 1 2 1 1 1 1 2 2
7 8 7 7 7 6 6 6 4 6 3 3 0 0 0 1 0 2 2 1 2 2 2 2 2 2 3 4 3 2 2 2
9 9 9 9 8 8 7 6 5 4 5 4 4 1 0 0 1 1 1 1 2 2 2 2 2 2 3 4 6 4 2 2
10 10 10 10 9 9 8 7 7 6 4 5 5 3 0 0 0 0 1 1 2 1 2 2 3 2 2 4 6 7 5 3
11 11 11 11 10 11 11 10 9 7 7 5 6 5 4 1 0 0 1 1 1 2 1 2 2 3 2 2 3 4 6 7
12 12 12 11 12 12 12 12 10 8 8 7 6 6 4 3 1 1 1 1 1 1 1 1 2 2 3 3 3 4 3 5
13 13 13 12 12 12 13 13 11 10 9 9 8 6 6 4 4 1 1 1 1 1 1 1 1 2 2 2 3 4 4 5
13 13 13 13 13 13 13 12 12 11 11 9 8 7 6 6 3 2 1 1 1 1 1 1 1 2 2 2 2 2 2 3
12 13 13 13 13 13 12 12 12 11 10 10 9 8 7 5 5 3 2 1 1 1 1 2 2 1 2 1 2 2 2 2

GFSFLT2_con_lsi_126.txt.gz
Lid_Strength_Index
1 1 0 1 1 1 1 0 0 0 0 -0 0 0 0 -0 -0 -0 -0 -0 -0 -0 -0 -1 -1 -0 -0 0 1 -0 0 1
2 2 1 1 1 1 1 1 1 0 0 0 1 1 0 0 0 -0 -0 -0 -0 -0 -0 -0 -0 -0 -0 1 1 0 0 0
2 2 2 2 1 -0 1 0 1 1 0 1 1 -0 -0 -0 0 0 0 0 0 -0 -0 -0 -0 -0 -0 0 0 0 1 0
2 2 2 2 0 0 0 0 -0 -0 -0 0 -0 -0 -0 -0 0 1 1 1 1 0 -0 0 0 0 0 -0 0 0 0 0
1 2 2 2 1 1 0 0 -0 1 0 -0 0 -0 0 -0 0 -0 -0 0 0 0 0 0 0 0 0 0 0 0 0 1
4 3 2 2 1 1 1 0 0 -0 0 0 1 0 0 0 0 0 0 0 0 0 0 0 0 0 -0 0 0 0 0 1
4 5 7 6 4 2 1 1 1 0 0 -0 -0 0 0 0 0 0 0 0 0 1 1 1 1 0 0 0 0 0 0 1
6 4 4 4 5 4 4 2 1 1 -0 -0 0 -0 0 0 0 1 0 0 0 0 0 1 1 1 1 1 1 1 0 1
5 5 5 6 6 5 4 5 4 2 0 -0 -0 -0 0 0 1 1 1 0 0 0 1 1 1 1 1 1 1 1 0 1
6 5 6 6 6 5 5 4 3 4 3 2 -0 -0 -0 0 1 2 1 1 1 1 1 1 1 2 1 1 1 1 1 1
8 7 7 7 6 6 6 6 5 4 3 4 3 0 -0 -0 0 1 1 1 1 1 1 1 2 2 1 1 1 1 1 1
9 9 9 8 8 7 7 7 7 6 5 3 4 4 3 -0 0 1 1 1 1 1 1 1 1 1 1 1 2 2 1 2
10 10 10 9 9 10 10 10 9 7 6 5 2 3 4 3 0 1 0 1 1 1 2 2 2 1 3 4 4 2 2 2
11 11 11 10 10 10 10 9 9 9 7 6 5 4 5 5 4 1 1 1 1 2 2 2 2 2 3 4 6 4 3 2
12 12 12 11 11 11 11 11 10 10 9 9 7 6 6 6 5 4 1 1 1 1 1 2 3 2 2 4 6 7 5 3
12 12 12 11 11 12 12 13 13 12 11 10 9 7 6 6 6 5 3 1 1 1 1 1 2 3 2 2 3 4 6 7
13 13 12 12 12 13 13 13 13 13 12 11 10 9 8 7 6 6 4 2 1 1 1 2 1 2 3 3 3 4 4 5
12 12 12 12 12 12 13 14 14 14 13 13 12 10 9 8 6 5 3 3 3 1 1 1 1 2 2 2 3 4 4 4
12 12 13 12 13 13 13 13 13 14 13 12 12 12 11 9 8 7 5 4 3 2 1 1 1 2 2 2 2 2 2 3
11 12 12 12 12 13 12 12 12 12 11 11 11 11 10 9 9 8 7 5 5 4 2 1 1 1 2 3 3 2 1 2